This demonstration page uses our WeatherBlox Daily Observations layout. Learn more.

Left ArrowRight Arrow

36.19886, -115.1175

Hourly Observations for November 27, 2015

Temp ( °F °C ) Dew Point ( °F °C ) Humidity (%) Winds ( mph kmh ) Pressure ( in mb ) Visibility ( mi km ) Precip ( " mm )
12:53 am 00:53 Clear 44 6.7 13 -10.6 28 28 NNW 16 26 30.05 1018 10 16 0.00 0.00
1:53 am 01:53 Clear 44 6.7 14 -10 30 30 NNW 17 28 30.06 1018 10 16 0.00 0.00
2:53 am 02:53 Clear 43 6.1 14 -10 31 31 NNW 17 28 30.06 1018 10 16 0.00 0.00
3:53 am 03:53 Clear 43 6.1 14 -10 31 31 NNW 18 30 30.06 1018 10 16 0.00 0.00
4:53 am 04:53 Partly Cloudy 42 5.6 14 -10 32 32 N 20 31 30.08 1019 10 16 0.00 0.00
5:53 am 05:53 Mostly Cloudy 41 5 15 -9.4 35 35 N 17 28 30.09 1019 10 16 0.00 0.00
6:53 am 06:53 Cloudy 42 5.6 15 -9.4 33 33 N 15 24 30.09 1019 10 16 0.00 0.00
7:53 am 07:53 Mostly Sunny 43 6.1 15 -9.4 32 32 N 18 30 30.10 1019 10 16 0.00 0.00
8:53 am 08:53 Cloudy 44 6.7 15 -9.4 31 31 N 18 30 30.12 1020 10 16 0.00 0.00
9:53 am 09:53 Partly Cloudy 46 7.8 15 -9.4 29 29 NNW 17 28 30.12 1020 10 16 0.00 0.00
10:53 am 10:53 Mostly Cloudy 47 8.3 15 -9.4 28 28 NNW 20 31 30.10 1019 10 16 0.00 0.00
11:53 am 11:53 Sunny 50 10 15 -9.4 25 25 N 14 22 30.08 1019 10 16 0.00 0.00
12:53 pm 12:53 Sunny 50 10 15 -9.4 25 25 N 14 22 30.06 1018 10 16 0.00 0.00
1:53 pm 13:53 Sunny 51 10.6 14 -10 23 23 N 13 20 30.05 1018 10 16 0.00 0.00
2:53 pm 14:53 Mostly Cloudy 51 10.6 13 -10.6 22 22 NNW 10 17 30.06 1018 10 16 0.00 0.00
3:53 pm 15:53 Sunny 50 10 14 -10 24 24 N 8 13 30.06 1018 10 16 0.00 0.00
4:53 pm 16:53 Partly Cloudy 48 8.9 14 -10 25 25 NNW 6 9 30.07 1018 10 16 0.00 0.00
5:53 pm 17:53 Cloudy 48 8.9 15 -9.4 27 27 NE 5 7 30.09 1019 10 16 0.00 0.00
6:53 pm 18:53 Cloudy 47 8.3 17 -8.3 30 30 E 3 6 30.10 1019 10 16 0.00 0.00
7:53 pm 19:53 Cloudy 45 7.2 18 -7.8 34 34 E 6 9 30.11 1020 10 16 0.00 0.00
8:53 pm 20:53 Cloudy 44 6.7 18 -7.8 35 35 E 12 19 30.13 1020 10 16 0.00 0.00
9:53 pm 21:53 Partly Cloudy 42 5.6 19 -7.2 40 40 E 9 15 30.14 1021 10 16 0.00 0.00
10:53 pm 22:53 Mostly Cloudy 40 4.4 19 -7.2 43 43 ESE 7 11 30.15 1021 10 16 0.00 0.00
11:53 pm 23:53 Cloudy 40 4.4 20 -6.7 45 45 SSW 5 7 30.16 1021 10 16 0.00 0.00

Powered by AerisWeather